Location: Copeville
(33.0796°N, 96.4155°W)
Time: 06:08:14
(UTC+00:00)

JUGNU - Pass Details

Date: 24 April 2024
Orbit: 835 x 862 km, 20.0° (Epoch: 19 May)

Event Time Altitude Azimuth Distance (km) Brightness Sun altitude
Rises 02:29:48 0° 249° (WSW) 3,367 ? -17.7°
Reaches altitude 10° 02:33:24 10° 227° (SW) 2,436 ? -18.3°
Maximum altitude 02:36:42 15° 193° (SSW) 2,076 ? -18.9°
Enters shadow 02:38:04 14° 177° (S) 2,143 ? -19.2°
